Location: Goettingen
(51.5300°N, 9.9433°E)
Time: 16:38:35
(UTC+01:00)

ISS - Pass Details

Date: 23 January 2020
Orbit: 415 x 421 km, 51.6° (Epoch: 18 January)

Event Time Altitude Azimuth Distance (km) Brightness Sun altitude
Rises 17:35:45 0° 190° (S) 2,354 0.6 -6.8°
Reaches altitude 10° 17:39:17 10° 151° (SSE) 1,494 -1.0 -7.3°
Maximum altitude 17:40:06 11° 137° (SE) 1,454 -1.2 -7.4°
Drops below altitude 10° 17:40:56 10° 122° (ESE) 1,496 -1.3 -7.5°
Enters shadow 17:42:24 - 101° (E) 1,755 -1.1 -7.7°
